Location: Unspecified
(43.0000°N, 0.0000°E)
Time: 07:20:27
(UTC+00:00)

PicSat - Visible Passes

Search period start: 14 August 2020 00:00
Search period end: 24 August 2020 00:00
Orbit: 483 x 495 km, 97.4° (Epoch: 13 August)

Date Brightness Start Highest point End Pass type
(mag) Time Alt. Az. Time Alt. Az. Time Alt. Az.
14 Aug ? 21:49:28 42° N 21:49:28 42° N 21:52:00 10° N visible
15 Aug ? 21:26:27 31° NE 21:26:27 31° NE 21:28:56 10° N visible
15 Aug ? 23:00:55 11° WNW 23:00:55 11° WNW 23:01:19 10° WNW visible
16 Aug ? 21:03:25 19° NE 21:03:25 19° NE 21:05:31 10° NNE visible
16 Aug ? 22:37:53 19° NW 22:37:53 19° NW 22:39:19 10° NW visible
17 Aug ? 20:40:23 11° ENE 20:40:23 11° ENE 20:41:22 10° NE visible
17 Aug ? 22:14:51 28° NW 22:14:51 28° NW 22:16:47 10° NNW visible
18 Aug ? 21:51:49 33° N 21:51:49 33° N 21:53:57 10° N visible
19 Aug ? 21:28:47 28° NNE 21:28:47 28° NNE 21:30:52 10° N visible
20 Aug ? 21:05:44 19° NE 21:05:44 19° NE 21:07:30 10° NNE visible
20 Aug ? 22:40:12 16° NW 22:40:12 16° NW 22:41:11 10° NW visible
21 Aug ? 20:42:42 11° NE 20:42:42 11° NE 20:43:26 10° NE visible
21 Aug ? 22:17:10 22° NNW 22:17:10 22° NNW 22:18:40 10° NNW visible
22 Aug ? 21:54:07 26° N 21:54:07 26° N 21:55:51 10° N visible
23 Aug ? 21:31:05 24° NNE 21:31:05 24° NNE 21:32:46 10° N visible
